This is the latest recevied weather packets stored in our database for station/object SP1BMW-13. If no packets are shown the sender has not sent any weather packets the latest 10 day(s).
| Time | Temp. | Humidity | Pressure | Rain* | Wind** | Luminosity | Snow |
|---|---|---|---|---|---|---|---|
| 1777378798 | 14.44° C | 27% | 1025.3 hPa | 0 mm | 0.89 m/s, 2° | 640 W/m² | - |
| 1777378738 | 14.44° C | 30% | 1025.4 hPa | 0 mm | 1.79 m/s, 19° | 642 W/m² | - |
| 1777378678 | 14.44° C | 28% | 1025.2 hPa | 0 mm | 1.79 m/s, 24° | 643 W/m² | - |
| 1777378619 | 14.44° C | 28% | 1025.3 hPa | 0 mm | 0.89 m/s, 291° | 644 W/m² | - |
| 1777378558 | 14.44° C | 28% | 1025.4 hPa | 0 mm | 0.89 m/s, 8° | 646 W/m² | - |
| 1777378498 | 14.44° C | 28% | 1025.3 hPa | 0 mm | 1.79 m/s, 321° | 647 W/m² | - |
| 1777378438 | 14.44° C | 27% | 1025.1 hPa | 0 mm | 2.24 m/s, 259° | 645 W/m² | - |
| 1777378377 | 14.44° C | 27% | 1025.5 hPa | 0 mm | 0.89 m/s, 330° | 647 W/m² | - |
| 1777378318 | 14.44° C | 27% | 1025.4 hPa | 0 mm | 1.34 m/s, 353° | 650 W/m² | - |
| 1777378257 | 14.44° C | 28% | 1025.2 hPa | 0 mm | 0 m/s | 649 W/m² | - |
| 1777378198 | 14.44° C | 28% | 1025.4 hPa | 0 mm | 1.79 m/s, 57° | 651 W/m² | - |
| 1777378138 | 13.89° C | 29% | 1025.4 hPa | 0 mm | 1.34 m/s, 33° | 652 W/m² | - |
| 1777378077 | 13.89° C | 26% | 1025.3 hPa | 0 mm | 0.45 m/s, 141° | 651 W/m² | - |
| 1777378018 | 13.89° C | 27% | 1025.3 hPa | 0 mm | 0.45 m/s, 180° | 651 W/m² | - |
| 1777377958 | 13.89° C | 26% | 1025.2 hPa | 0 mm | 1.79 m/s, 183° | 652 W/m² | - |
| 1777377898 | 13.89° C | 26% | 1025.5 hPa | 0 mm | 1.34 m/s, 135° | 653 W/m² | - |
| 1777377838 | 14.44° C | 26% | 1025.4 hPa | 0 mm | 0.45 m/s, 44° | 653 W/m² | - |
| 1777377778 | 14.44° C | 26% | 1025.5 hPa | 0 mm | 1.34 m/s, 352° | 654 W/m² | - |
| 1777377718 | 14.44° C | 26% | 1025.6 hPa | 0 mm | 1.79 m/s, 289° | 654 W/m² | - |
| 1777377658 | 14.44° C | 28% | 1025.4 hPa | 0 mm | 0.89 m/s, 62° | 655 W/m² | - |
| 1777377598 | 14.44° C | 28% | 1025.5 hPa | 0 mm | 1.79 m/s, 33° | 656 W/m² | - |
| 1777377538 | 14.44° C | 29% | 1025.4 hPa | 0 mm | 0.89 m/s, 20° | 657 W/m² | - |
| 1777377478 | 14.44° C | 27% | 1025.4 hPa | 0 mm | 1.34 m/s, 45° | 657 W/m² | - |
| 1777377418 | 14.44° C | 29% | 1025.6 hPa | 0 mm | 1.34 m/s, 279° | 657 W/m² | - |
| 1777377358 | 14.44° C | 28% | 1025.4 hPa | 0 mm | 1.79 m/s, 8° | 655 W/m² | - |
* Rain latest hour (hover to see other rain measurements)
** Current wind speed in m/s (hover to see current wind gust speed)